Location: Unspecified
(40.7945°N, 111.1337°W)
Time: 13:58:44
(UTC-06:00)

CZ-3 Stage 3 - Pass Details

Date: 04 June 2019
Orbit: 501 x 34691 km, 30.5° (Epoch: 17 June)

Event Time Altitude Azimuth Distance (km) Brightness Sun altitude
Rises 00:03:12 0° 237° (WSW) 3,573 5.8 -24.1°
Reaches altitude 10° 00:04:47 10° 231° (SW) 3,048 5.4 -24.3°
Maximum altitude 00:11:59 52° 152° (SSE) 2,990 5.0 -24.7°
Drops below altitude 10° 07:55:22 10° 147° (SSE) 29,890 10.9 20.4°
Sets 08:47:40 0° 147° (SSE) 23,224 10.4 30.2°
